DW9615 Home Hill AU current weather conditions

sailwx.info

Wind from 130

Air temperature 16.1° C
Dewpoint 15.0° C

Last reported at 2014-Jul-25 19:44 UTC.
Time now 2014-Jul-25 20:39 UTC

Location: S 19°40' E 147°25'.
View on Google Maps.

See reports from other nearby stations

  
Tides and Currents Weather Stations Pressure Air Temp Water Temp Dewpoint Dewpoint Depression Visibility Wind Speed Wind Dir Waves Ship Positions
date/time (UTC)wind fromknots sea level pressurealtimeterstation pressurevisibilityair tempwater tempwave heightnotes
2014-Jul-25 19:44 130 16.1
2014-Jul-25 19:29 122 16.7
2014-Jul-25 19:14 266 16.1
2014-Jul-25 18:59 266 16.1
2014-Jul-25 18:44 266 16.1
2014-Jul-25 18:29 266 16.1
2014-Jul-25 18:14 266 16.7
2014-Jul-25 17:59 266 16.7
2014-Jul-25 17:44 266 16.7
2014-Jul-25 17:29 265 17.2
2014-Jul-25 17:14 119 17.2
2014-Jul-25 16:59 159 17.2
2014-Jul-25 16:44 159 17.8
2014-Jul-25 16:29 162 17.8
2014-Jul-25 16:14 165 17.8
2014-Jul-25 15:59 145 17.8
2014-Jul-25 15:44 170 17.8
2014-Jul-25 15:29 153 18.3
2014-Jul-25 15:14 153 18.3
2014-Jul-25 14:59 122 18.3
2014-Jul-25 14:44 163 18.3
2014-Jul-25 14:29 112 18.9
2014-Jul-25 14:14 115 18.9
2014-Jul-25 13:59 102 18.9
2014-Jul-25 13:44 187 18.9
2014-Jul-25 13:29 145 18.9
2014-Jul-25 13:14 162 18.9
2014-Jul-25 12:59 159 18.9
2014-Jul-25 12:44 129 19.4
2014-Jul-25 12:29 112 0 gusting 2 19.4
2014-Jul-25 12:14 105 20.0
2014-Jul-25 11:59 129 20.0
2014-Jul-25 11:44 097 0 gusting 4 20.0
2014-Jul-25 11:29 111 0 gusting 5 20.0
2014-Jul-25 11:14 095 20.0
2014-Jul-25 10:59 102 20.6
2014-Jul-25 10:43 138 0 gusting 6 21.1
2014-Jul-25 10:28 115 3 gusting 8 21.1
2014-Jul-25 10:13 112 4 gusting 8 21.1
2014-Jul-25 09:58 105 4 gusting 12 21.1
2014-Jul-25 09:43 114 2 gusting 8 21.1
2014-Jul-25 09:28 149 2 gusting 12 21.1
2014-Jul-25 09:13 110 3 gusting 13 21.1
2014-Jul-25 08:58 131 6 gusting 12 21.1
2014-Jul-25 08:43 095 4 gusting 12 21.1
2014-Jul-25 08:28 067 4 gusting 10 21.7
2014-Jul-25 08:13 069 4 gusting 12 21.7
2014-Jul-25 07:58 097 6 gusting 12 21.7
2014-Jul-25 07:43 073 5 gusting 10 22.2
2014-Jul-25 07:28 074 6 gusting 13 22.2
2014-Jul-25 07:13 083 5 gusting 13 22.8
2014-Jul-25 06:58 088 6 gusting 11 23.3
2014-Jul-25 06:43 101 7 gusting 14 23.3
2014-Jul-25 06:28 144 6 gusting 11 23.9
2014-Jul-25 06:13 088 7 gusting 11 23.9
2014-Jul-25 05:58 069 4 gusting 13 24.4
2014-Jul-25 05:43 072 6 gusting 15 24.4
2014-Jul-25 05:28 114 6 gusting 14 24.4
2014-Jul-25 05:13 094 6 gusting 13 24.4
2014-Jul-25 04:58 074 6 gusting 13 24.4
2014-Jul-25 04:43 090 6 gusting 12 25.0
2014-Jul-25 04:28 107 7 gusting 13 25.0
2014-Jul-25 04:13 123 6 gusting 13 25.0
2014-Jul-25 03:58 102 6 gusting 12 25.0
2014-Jul-25 03:43 104 5 gusting 14 25.0
2014-Jul-25 03:28 165 5 gusting 12 25.0
2014-Jul-25 03:13 077 7 gusting 13 25.0
2014-Jul-25 02:58 116 4 gusting 9 26.1
2014-Jul-25 02:43 096 4 gusting 10 25.6
2014-Jul-25 02:28 086 4 gusting 13 25.6
2014-Jul-25 02:13 122 5 gusting 13 25.6
2014-Jul-25 01:58 275 3 gusting 11 25.6
2014-Jul-25 01:43 154 4 gusting 10 25.6
2014-Jul-25 01:28 019 3 gusting 12 25.0
2014-Jul-25 01:13 162 6 gusting 11 24.4
2014-Jul-25 00:58 096 5 gusting 9 24.4
2014-Jul-25 00:43 339 4 gusting 9 24.4
2014-Jul-25 00:28 108 3 gusting 10 23.9
2014-Jul-25 00:13 204 3 gusting 8 23.3
2014-Jul-24 23:58 108 3 gusting 7 23.3
2014-Jul-24 23:43 103 2 gusting 7 22.8
2014-Jul-24 23:28 144 4 gusting 7 22.2
2014-Jul-24 23:12 116 3 gusting 9 21.7
2014-Jul-24 22:57 223 2 gusting 6 21.7
2014-Jul-24 22:42 154 3 gusting 7 21.1
2014-Jul-24 22:27 120 2 gusting 8 20.6
2014-Jul-24 22:12 100 2 gusting 8 20.0
2014-Jul-24 21:57 126 1 gusting 8 19.4
2014-Jul-24 21:42 156 1 gusting 5 18.9
2014-Jul-24 21:27 151 0 gusting 4 18.3
2014-Jul-24 21:12 130 17.8
2014-Jul-24 20:57 117 17.2
2014-Jul-24 20:42 164 17.2
2014-Jul-24 20:27 164 17.2
2014-Jul-24 20:12 154 17.8
2014-Jul-24 19:57 122 17.8
2014-Jul-24 19:42 170 0 gusting 4 18.3
2014-Jul-24 19:27 180 18.9
2014-Jul-24 19:12 164 0 gusting 3 18.9
2014-Jul-24 18:57 039 0 gusting 3 18.9
2014-Jul-24 18:42 083 18.9
2014-Jul-24 18:27 159 18.3
2014-Jul-24 18:12 160 0 gusting 3 18.3
2014-Jul-24 17:57 156 17.8
2014-Jul-24 17:27 149 18.3
2014-Jul-24 17:12 108 0 gusting 3 18.3
2014-Jul-24 16:57 154 1 gusting 4 18.9
2014-Jul-24 16:42 171 1 gusting 4 18.9
2014-Jul-24 16:27 160 1 gusting 4 18.9
2014-Jul-24 16:12 171 1 gusting 4 18.9
2014-Jul-24 15:57 149 0 gusting 3 18.9
2014-Jul-24 15:42 105 0 gusting 3 18.3
2014-Jul-24 15:26 116 18.3
2014-Jul-24 15:11 135 17.8
2014-Jul-24 14:56 133 17.8
2014-Jul-24 14:41 103 17.2
2014-Jul-24 14:26 145 17.8
2014-Jul-24 14:11 152 17.8
2014-Jul-24 13:56 116 17.2
2014-Jul-24 13:41 166 17.2
2014-Jul-24 13:26 129 17.2
2014-Jul-24 13:11 104 17.8
2014-Jul-24 12:56 116 17.8
2014-Jul-24 12:41 105 17.8
2014-Jul-24 12:26 125 17.8
2014-Jul-24 12:11 146 18.3
2014-Jul-24 11:56 140 18.9
2014-Jul-24 11:41 126 18.9
2014-Jul-24 11:26 126 18.9
2014-Jul-24 11:11 126 18.9
2014-Jul-24 10:56 126 18.9
2014-Jul-24 10:41 126 18.9
2014-Jul-24 10:26 126 19.4
2014-Jul-24 10:11 087 19.4
2014-Jul-24 09:56 080 19.4
2014-Jul-24 09:41 064 19.4
2014-Jul-24 09:26 340 19.4
2014-Jul-24 09:11 059 1 gusting 7 19.4
2014-Jul-24 08:56 101 4 gusting 8 20.0
2014-Jul-24 08:41 094 4 gusting 11 20.0
2014-Jul-24 08:26 124 1 gusting 8 20.0
2014-Jul-24 08:11 163 0 gusting 5 20.0
2014-Jul-24 07:56 112 4 gusting 9 20.0
2014-Jul-24 07:41 074 5 gusting 11 20.6
2014-Jul-24 07:26 114 2 gusting 8 21.1
2014-Jul-24 07:11 077 4 gusting 11 21.7
2014-Jul-24 06:56 116 5 gusting 12 22.2
2014-Jul-24 06:41 108 4 gusting 10 21.7
2014-Jul-24 06:26 104 5 gusting 11 21.7
2014-Jul-24 06:11 321 3 gusting 13 22.2
2014-Jul-24 05:56 138 2 gusting 7 23.3
2014-Jul-24 04:26 114 6 gusting 10 22.8
2014-Jul-24 04:11 119 6 gusting 13 23.3
2014-Jul-24 03:56 107 9 gusting 14 23.3
2014-Jul-24 03:41 103 5 gusting 11 23.3
2014-Jul-24 03:26 081 4 gusting 10 23.3
2014-Jul-24 03:11 103 3 gusting 10 22.8
2014-Jul-24 02:56 093 3 gusting 13 22.8
2014-Jul-24 02:41 109 6 gusting 13 22.8
2014-Jul-24 02:26 083 4 gusting 10 23.3
2014-Jul-24 02:11 053 6 gusting 10 23.3
2014-Jul-24 01:56 158 3 gusting 11 22.2
2014-Jul-24 01:41 102 4 gusting 12 22.8
2014-Jul-24 01:26 124 5 gusting 10 23.3
2014-Jul-24 01:11 192 6 gusting 13 23.3
2014-Jul-24 00:56 170 6 gusting 12 22.8
2014-Jul-24 00:41 110 5 gusting 10 22.2
2014-Jul-24 00:26 149 3 gusting 8 21.7
2014-Jul-24 00:11 112 2 gusting 8 21.1
2014-Jul-23 23:56 087 2 gusting 8 21.1
2014-Jul-23 23:41 179 3 gusting 7 20.6
2014-Jul-23 23:26 192 2 gusting 7 20.6
2014-Jul-23 23:11 159 2 gusting 10 20.6
2014-Jul-23 22:56 163 1 gusting 7 19.4
2014-Jul-23 22:41 169 2 gusting 5 18.9
2014-Jul-23 22:26 155 0 gusting 2 16.7
2014-Jul-23 22:10 140 16.1
2014-Jul-23 21:55 190 0 gusting 2 15.0
2014-Jul-23 21:40 158 14.4
2014-Jul-23 21:25 165 13.9
2014-Jul-23 21:10 220 0 gusting 2 13.3
2014-Jul-23 20:55 163 12.8
2014-Jul-23 20:40 199 12.8
2014-Jul-23 20:25 185 12.8
2014-Jul-23 20:10 199 12.8